Regional Weather Roundup
Issued by NWS Northern Indiana

Home | Current Version | Previous Version | Text Only | Print | Product List | Glossary On
Versions: 1 2 3 4 5 6 7 8 9 10 11 12 13 14 15 16 17 18 19 20 21 22 23 24 25 26 27 28 29 30 31 32 33 34 35 36 37 38 39 40 41 42 43 44 45 46 47 48 49 50
000
ASUS43 KIWX 202300
RWRIWX

KIWX WEATHER ROUNDUP
NATIONAL WEATHER SERVICE NORTHERN INDIANA
600 PM EST SAT DEC 20 2014

NOTE: "FAIR" INDICATES FEW OR NO CLOUDS BELOW 12,000 FEET WITH NO
SIGNIFICANT WEATHER AND/OR OBSTRUCTIONS TO VISIBILITY.

* THESE STATIONS ARE NOT UNDER NWS QUALITY CONTROL. THEY ALSO MAY NOT
  REPORT WEATHER SUCH AS PRECIPITATION OR FOG.

INZ001>027-210000-
NORTHERN INDIANA

CITY           SKY/WX    TMP DP  RH WIND       PRES   REMARKS
GARY*          CLOUDY    34  23  64 VRB5      30.27S WCI  30
SOUTH BEND     CLOUDY    33  25  72 CALM      30.26F
ELKHART*       CLOUDY    30  27  86 CALM      30.27  FOG
GOSHEN         CLOUDY    31  27  85 CALM      30.26S
ANGOLA*        CLOUDY    28  25  86 CALM      30.25S
FORT WAYNE     CLOUDY    32  26  78 W3        30.28R

$$
INZ028>050-210000-
CENTRAL INDIANA

CITY           SKY/WX    TMP DP  RH WIND       PRES   REMARKS
LAFAYETTE      CLOUDY    31  25  78 CALM      30.28R
KOKOMO*        CLOUDY    30  25  80 CALM      30.27S
MUNCIE*        CLOUDY    32  24  72 CALM      30.27R
INDIANAPOLIS   CLOUDY    31  23  72 S3        30.26S

$$
MIZ043>046-050>051-056>058-064>065-071>073-077>080-210000-
SOUTHWEST LOWER MICHIGAN

CITY           SKY/WX    TMP DP  RH WIND       PRES   REMARKS
BATTLE CREEK   CLOUDY    29  22  75 W3        30.26R
BENTON HARBOR  CLOUDY    32  26  78 S3        30.26S
COLDWATER*     CLOUDY    30  23  74 CALM      30.26R
HILLSDALE*     CLOUDY    29  22  75 CALM      30.24S
HOLLAND        CLOUDY    31  27  85 SE5       30.27R FOG     WCI  26
GRAND RAPIDS   LGT SNOW  31  25  78 SW6       30.26S WCI  25
KALAMAZOO      CLOUDY    30  25  81 SW3       30.27R
STURGIS*       LGT SNOW  28  27  93 CALM      30.26S
THREE RIVERS*  CLOUDY    30  28  92 CALM      30.27S FOG

$$
OHZ001>008-015>018-024>025-210000-
NORTHWEST OHIO

CITY           SKY/WX    TMP DP  RH WIND       PRES   REMARKS
DEFIANCE       CLOUDY    31  23  72 CALM      30.28R
FINDLAY        CLOUDY    31  23  72 S5        30.26R WCI  26
TOLEDO EXPRESS CLOUDY    30  21  69 CALM      30.27S
TOLEDO METCALF CLOUDY    31  23  72 SE5       30.29R WCI  26
LIMA           CLOUDY    33  24  69 SW3       30.25S

$$
AND FOR LAKE MICHIGAN COASTAL AND OPEN LAKE BUOY OBSERVATIONS

STATION/POSITION TEMP    WIND        PRES    VSBY  WAVE
                 AIR SEA DIR/SP/G                  HT/PER
                 (F)     (DEG/KT/KT) (MB)    (MI)  (FT/S)
CALUMET HARBOR    33     190/  4/  7 1023.4R
SAINT JOSEPH      34     210/  6/ 12 1024.7F
MICHIGAN CITY CG     36                N/A    3 1/2  1

$$
&&


USA.gov is the U.S. government's official web portal to all federal, state and local government web resources and services.